Home   Weather   Sochi   Past weeks

Flag for Russia Past Weather in Sochi, Russia — Yesterday and Last 2 Weeks

Now
36 °F

Overcast.


Feels Like: 28 °F
Forecast: 42 / 45 °F
Wind: 10 mph from Northeast

Location: Adler

Current Time: Dec 9, 2016 at 4:53:59 am

Latest Report: Dec 9, 2016 at 4:00 am


Visibility: N/A

Pressure: 30.36 "Hg

Humidity: 60%

Dew Point: 23 °F

Location of SochiLocation

Past Weather in Sochi — Graph

°F

Sochi Temperature Yesterday

Maximum temperature yesterday: 36 °F (at 1:30 pm)
Minimum temperature yesterday: 21 °F (at 6:00 am)
Average temperature yesterday: 30 °F

High & Low Weather Summary for the Past Weeks

 TemperatureHumidityPressure
High66 °F (Nov 29, 3:00 am)100% (Dec 7, 2:00 pm)30.63 "Hg (Dec 7, 2:00 pm)
Low21 °F (Dec 8, 6:00 am)21% (Nov 29, 7:00 am)29.71 "Hg (Dec 2, 6:00 am)
Average43 °F69%30.16 "Hg
* Reported Nov 24 3:00 am — Dec 9 3:30 am, Sochi, Weather by CustomWeather, © 2016

Note: Actual official high and low records may vary slightly from our data, if they occured in-between our weather recording intervals... More about our weather records

Advertising

Sochi Weather History for the Previous 24 Hours

Scroll right to see more
 ConditionsComfort  
Time TempWeatherWind HumidityBarometerVisibility
3:30 am
Fri, Dec 9
34 °FOvercast.13 mph65%30.39 "HgN/A
3:00 am34 °FOvercast.13 mph65%30.39 "HgN/A
2:30 am34 °FOvercast.10 mph65%30.39 "HgN/A
2:00 am32 °FPassing clouds.8 mph75%30.42 "HgN/A
1:30 am34 °FPassing clouds.13 mph65%30.42 "HgN/A
1:00 am34 °FPassing clouds.13 mph65%30.45 "HgN/A
12:30 am34 °FPassing clouds.10 mph70%30.48 "HgN/A
12:00 am34 °FPassing clouds.10 mph70%30.48 "HgN/A
11:30 pm
Thu, Dec 8
32 °FPassing clouds.10 mph75%30.48 "HgN/A
11:00 pm32 °FPassing clouds.10 mph75%30.51 "HgN/A
10:30 pm32 °FPassing clouds.10 mph75%30.51 "HgN/A
10:00 pm32 °FPassing clouds.10 mph80%30.54 "HgN/A
9:30 pm32 °FPassing clouds.8 mph80%30.54 "HgN/A
9:00 pm32 °FPassing clouds.8 mph80%30.54 "HgN/A
8:30 pm30 °FPassing clouds.8 mph86%30.57 "HgN/A
8:00 pm32 °FPassing clouds.8 mph80%30.57 "HgN/A
7:30 pm30 °FPassing clouds.8 mph86%30.57 "HgN/A
7:00 pm30 °FPassing clouds.6 mph86%30.60 "HgN/A
6:30 pm30 °FPassing clouds.8 mph80%30.60 "HgN/A
6:00 pm32 °FPassing clouds.No wind64%30.60 "HgN/A
5:30 pm34 °FPassing clouds.No wind51%30.60 "HgN/A
5:00 pm34 °FPassing clouds.No wind51%30.60 "HgN/A
4:30 pm34 °FPartly sunny.3 mph51%30.60 "HgN/A
4:00 pm36 °FPartly sunny.3 mph48%30.60 "HgN/A
3:00 pm36 °FPartly sunny.10 mph56%30.63 "HgN/A
2:30 pm36 °FPartly sunny.8 mph52%30.63 "HgN/A
2:00 pm36 °FPartly sunny.8 mph52%30.63 "HgN/A
1:30 pm36 °FPartly sunny.8 mph52%30.63 "HgN/A
1:00 pm34 °FBroken clouds.8 mph60%30.63 "HgN/A
12:30 pm34 °FPartly sunny.8 mph60%30.63 "HgN/A
12:00 pm34 °FPartly sunny.8 mph60%30.63 "HgN/A
11:30 am34 °FScattered clouds.8 mph56%30.63 "HgN/A
11:00 am34 °FScattered clouds.3 mph56%30.63 "HgN/A
10:30 am30 °FPartly sunny.3 mph69%30.63 "HgN/A
10:00 am28 °FScattered clouds.1 mph74%30.63 "HgN/A
9:30 am27 °FPassing clouds.1 mph74%30.63 "HgN/A
9:00 am25 °FPassing clouds.No wind80%30.60 "HgN/A
8:30 am25 °FPassing clouds.6 mph74%30.60 "HgN/A
8:00 am23 °FPassing clouds.6 mph80%30.60 "HgN/A
7:30 am23 °FPassing clouds.6 mph80%30.57 "HgN/A
7:00 am23 °FClear.6 mph80%30.57 "HgN/A
6:30 am23 °FClear.6 mph80%30.54 "HgN/A
6:00 am21 °FClear.6 mph86%30.54 "HgN/A
5:00 am28 °FClear.6 mph51%30.51 "HgN/A
4:30 am23 °FClear.6 mph86%30.48 "HgN/A
4:00 am23 °FClear.6 mph80%30.48 "HgN/A
Weather by CustomWeather, © 2016

See weather overviewHow to use our weather pages